Location: Jastrz?bniki
(50.3667°N, 20.3833°E)
Time: 12:25:24
(UTC+00:00)

Cosmos 1470 Rocket - Pass Details

Date: 05 August 2024
Orbit: 601 x 628 km, 82.5° (Epoch: 07 September)

Event Time Altitude Azimuth Distance (km) Brightness Sun altitude
Exits shadow 01:54:24 15° 213° (SSW) 1,652 5.1 -10.9°
Maximum altitude 01:57:48 48° 285° (WNW) 796 3.9 -10.5°
Drops below altitude 10° 02:02:01 10° 0° (N) 1,967 6.8 -10.0°
Sets 02:04:19 0° 7° (N) 2,880 7.8 -9.7°
